カタログに戻る

STARLINK-11702

運用中通信VLEO
NORAD 63752·PAYLOAD·🇺🇸 United States

打ち上げ Apr 29, 2025 から Cape Canaveral Space Force Station

Loading…

次のパス (今後24時間)

TLE

最新Source: CelesTrak SupGP

元期: Sep 15, 2026, 02:39 UTC

1 63752C 25089B   26258.11090278 -.00038566  00000+0 -29941-3 0  2583
2 63752  43.0005 230.4159 0001425 268.1259 221.1672 15.70868514    13

AllMySatでSTARLINK-11702をリアルタイム追跡

Download on the App Store